RH
16 15 14 12 10 8 7 6 5 6 5 5 6 6 6 6 6 6 4 4 4 9 16 19 26 35 35 32 35 37 39 41 40 40 39 37 37 35 35 35 36 35 34 32 32 34 35 36 36 35 39 44 51 52 54 55 52 66 78 66 70 79 75 83 91 82 76 74 72 73 77 81 82 81 77 75 78 77 75 73 61 54 53 42 37 41 49 55
19 18 17 15 13 11 9 8 7 6 5 5 6 5 6 6 6 6 5 5 4 5 11 17 21 30 35 32 33 36 37 38 39 41 38 36 36 35 36 35 35 34 33 30 29 30 31 31 31 31 32 38 50 53 54 54 53 71 77 65 73 80 72 75 80 80 81 74 71 73 72 76 82 79 75 76 76 73 75 72 66 66 58 40 34 39 47 56
22 21 20 19 17 15 12 10 8 7 6 5 5 5 5 6 6 6 6 5 4 4 7 14 18 24 33 33 31 34 36 37 40 41 38 36 35 36 36 35 35 35 34 30 28 28 28 28 27 29 29 34 45 52 55 56 60 70 70 68 74 79 74 69 75 82 84 77 72 73 69 75 81 77 75 75 73 72 78 78 74 72 60 42 38 40 42 49
26 25 24 23 21 19 16 13 11 9 7 6 5 5 5 6 6 6 6 5 5 4 4 10 15 19 27 33 32 32 35 36 38 40 37 36 35 36 36 34 35 36 35 31 29 28 27 28 27 27 29 33 41 51 58 57 62 66 65 73 78 83 80 67 70 75 76 75 74 74 74 79 79 76 74 69 77 82 79 79 78 76 68 54 45 43 45 45
29 28 26 25 24 23 20 16 14 11 9 8 6 5 5 5 5 6 6 6 5 5 4 5 12 17 22 30 32 32 35 32 34 39 37 35 35 36 35 34 35 37 36 33 31 29 28 29 27 29 32 37 42 49 55 53 60 67 65 76 81 82 77 66 69 70 69 71 73 76 74 74 71 71 69 64 76 82 73 72 77 78 74 69 57 48 48 46
31 30 29 27 26 25 23 20 17 15 12 10 8 6 5 5 5 5 5 6 6 5 5 3 8 14 18 26 31 32 33 27 29 38 36 34 35 35 35 34 36 36 36 35 32 30 29 29 29 32 35 39 43 47 52 50 57 70 70 72 75 75 71 66 67 67 68 69 70 73 70 66 63 63 64 60 63 67 66 66 73 77 74 72 66 56 52 49
30 30 30 28 27 27 25 22 19 19 16 12 10 8 6 5 5 5 5 6 6 6 5 4 4 10 16 22 28 31 32 27 28 37 34 34 35 35 35 34 36 36 37 36 33 32 30 29 31 35 37 35 41 49 51 49 55 71 72 65 62 63 63 63 66 66 68 71 70 70 69 66 62 62 61 61 60 59 63 63 68 78 77 75 72 67 62 57
28 29 29 28 28 27 26 23 21 21 19 16 13 11 8 6 5 4 5 5 6 6 5 5 3 6 13 18 25 29 32 29 29 35 34 34 35 35 36 35 36 37 36 36 35 33 29 31 32 34 37 34 41 48 48 54 60 67 66 55 51 55 56 58 61 63 65 67 68 68 70 68 65 64 60 61 63 60 60 61 65 76 81 82 79 74 71 67
27 27 27 27 27 27 27 24 22 21 21 19 16 14 11 7 5 4 5 5 5 6 5 6 4 4 9 15 22 25 29 29 29 33 34 34 34 35 36 35 37 36 36 37 35 32 30 32 31 33 37 35 41 43 45 56 57 58 60 50 47 50 52 56 56 59 61 59 63 64 64 67 64 64 65 62 62 61 58 57 63 73 81 85 83 78 76 75
27 26 25 25 25 26 26 25 22 22 22 22 19 16 14 10 7 5 4 4 5 6 5 6 5 4 6 11 18 20 24 28 29 32 33 34 35 35 36 36 37 36 37 37 35 32 30 32 32 32 32 31 37 38 41 51 51 54 58 51 48 48 48 53 55 56 58 58 61 63 63 63 58 68 79 65 58 59 55 54 58 66 74 80 82 80 78 78
27 26 26 24 23 24 25 24 22 22 23 23 21 19 17 13 9 6 4 4 4 5 5 6 5 4 4 8 13 16 22 27 28 30 32 33 34 35 36 36 36 36 37 37 35 31 30 32 32 32 31 29 35 37 35 38 46 54 59 58 49 46 48 50 55 55 55 56 54 56 58 55 55 72 77 59 56 57 55 56 55 60 66 69 74 76 78 77
24 24 25 24 23 22 23 24 22 22 23 23 22 20 18 15 11 8 5 4 4 4 5 5 6 5 4 5 10 13 19 26 28 29 30 32 34 35 35 36 35 36 37 37 35 31 30 32 31 32 31 28 33 41 38 31 43 54 62 69 57 56 58 47 53 57 55 55 50 55 57 56 63 69 62 51 53 54 55 60 58 61 63 61 64 66 68 68
22 22 23 25 23 20 21 23 22 23 24 24 22 21 19 17 14 10 6 5 4 4 5 5 5 6 4 4 7 10 16 24 28 28 29 31 32 34 35 36 35 36 37 36 35 32 30 31 31 30 29 30 31 36 34 25 40 56 61 66 61 69 68 47 50 55 55 57 56 63 62 61 67 63 60 60 59 57 56 56 57 64 65 59 58 58 58 57
22 21 21 24 24 20 20 22 22 23 24 24 22 21 20 18 15 12 9 6 5 4 4 5 5 5 5 4 5 7 12 20 27 28 28 30 32 35 35 35 35 35 36 35 34 32 30 31 31 30 28 31 28 29 35 32 42 56 57 57 52 54 56 47 47 51 59 60 57 63 57 60 67 60 62 68 68 68 65 61 62 67 68 62 58 54 52 50
22 22 21 22 24 21 20 21 22 22 24 24 23 21 20 18 17 14 11 7 6 4 4 4 5 5 5 4 4 5 8 14 23 27 27 29 32 35 36 35 35 35 36 35 34 32 31 31 31 30 28 27 28 36 48 48 49 53 46 42 40 39 48 52 45 49 63 61 56 63 60 62 67 62 63 69 72 75 74 75 74 73 71 65 60 54 52 55
23 23 22 22 24 22 20 21 21 22 24 24 22 21 20 18 17 15 13 9 7 5 4 4 4 5 5 5 4 4 6 9 17 23 25 27 31 34 36 35 34 34 35 35 34 33 31 32 31 31 29 28 33 40 43 42 46 49 37 30 32 34 45 55 48 45 55 58 57 63 64 65 66 64 64 68 73 74 75 78 77 75 73 69 66 63 64 66
24 24 23 22 24 23 22 22 21 21 23 23 22 21 20 19 17 16 15 11 8 6 5 4 4 4 5 6 5 3 5 7 12 18 22 26 29 33 35 35 34 33 34 34 33 33 32 32 32 29 28 29 33 36 32 26 28 32 29 26 30 32 38 49 50 44 46 57 63 63 65 67 69 71 68 67 71 72 74 77 76 74 73 74 74 73 73 68
23 25 25 23 24 24 24 24 21 21 23 23 21 20 20 19 18 17 16 13 10 7 6 5 3 5 7 6 6 4 4 5 8 14 19 23 27 32 34 34 34 33 34 34 33 33 32 32 31 28 27 29 31 31 27 22 20 21 21 21 25 30 34 40 47 47 45 56 65 66 67 67 69 72 69 66 67 69 72 73 73 74 76 78 75 70 67 62
21 25 25 24 24 25 26 25 21 21 22 22 21 21 21 20 18 18 16 15 12 9 11 9 3 7 11 8 6 5 4 4 5 10 15 19 25 30 33 34 34 33 33 32 31 32 32 31 30 27 25 26 29 28 24 22 22 21 20 20 21 26 31 38 46 47 50 59 62 63 63 61 65 70 69 66 63 63 66 66 69 73 76 76 71 67 61 56
20 24 25 24 24 26 27 26 22 21 22 21 20 20 21 20 20 19 16 15 13 11 11 9 4 6 10 7 6 5 4 4 4 6 11 16 22 27 31 33 33 33 31 28 28 30 31 29 27 26 24 24 25 25 25 24 22 21 20 19 21 24 28 39 47 45 52 60 57 58 60 59 63 66 65 62 59 61 63 64 67 71 72 71 70 69 61 53
20 22 25 25 24 26 27 26 23 22 21 21 20 21 21 20 21 22 16 14 13 11 10 8 5 5 7 7 6 6 5 4 4 4 8 14 19 24 28 31 32 30 28 27 27 28 30 28 26 25 25 25 25 24 24 23 21 20 20 18 19 24 29 40 47 46 52 54 51 56 58 58 61 59 59 59 62 69 67 63 64 66 68 66 66 65 56 49
19 21 25 25 25 26 27 27 25 23 21 20 20 21 21 19 20 19 15 13 12 11 11 9 7 5 5 6 6 5 5 5 4 4 7 12 17 21 25 28 29 26 24 28 28 28 28 27 25 25 26 26 25 25 24 22 20 19 19 18 18 25 31 38 44 47 51 50 50 54 51 53 55 51 53 58 62 66 63 58 56 57 60 59 59 58 51 47
19 21 24 25 25 26 27 27 25 22 20 19 20 21 21 19 18 16 15 14 12 11 12 10 8 7 5 5 6 5 5 5 6 6 6 10 15 19 23 25 25 24 23 26 26 26 25 24 25 26 26 26 25 24 23 20 19 17 17 17 19 25 27 31 38 47 51 47 48 52 48 50 52 49 52 54 56 59 55 51 49 49 53 54 53 52 48 46
18 21 24 25 25 26 27 27 24 22 20 19 21 21 20 18 16 15 14 13 12 11 11 11 9 8 6 5 5 6 6 6 9 10 7 9 15 17 20 22 23 24 23 24 25 24 23 23 25 26 24 25 23 22 20 19 16 15 17 17 19 24 26 29 34 42 49 46 46 48 45 47 50 53 54 49 48 51 48 45 44 46 48 48 49 49 47 46
18 21 25 25 25 27 27 26 24 22 20 20 21 21 19 16 14 14 13 14 17 13 10 11 10 8 6 5 6 7 7 6 8 9 8 10 14 15 18 21 22 23 23 24 25 24 24 24 25 26 24 23 22 21 19 19 16 13 17 18 20 25 30 34 34 37 44 45 47 45 39 40 45 52 54 51 49 43 35 37 40 42 45 43 43 46 48 47
18 22 25 25 26 27 26 25 24 21 19 20 21 20 17 14 14 16 16 20 24 18 13 12 12 11 7 6 7 6 7 10 7 5 7 10 12 14 17 19 22 22 22 23 24 23 23 24 25 25 25 23 22 21 19 18 16 14 17 18 19 26 33 37 34 33 34 38 45 43 35 34 41 52 52 49 53 42 27 28 33 37 43 44 44 46 48 48
18 23 25 26 26 27 27 25 22 19 19 21 21 18 15 15 16 18 23 24 22 18 16 14 14 13 9 7 8 8 12 15 8 5 8 9 10 13 16 18 21 21 22 23 23 23 23 23 25 25 24 23 21 19 18 18 15 14 17 17 20 27 33 35 31 29 28 33 41 41 37 32 36 52 47 35 47 50 35 26 25 30 39 45 46 46 47 47
19 23 26 26 27 28 28 25 21 19 20 21 19 16 14 18 20 23 29 26 19 19 18 14 14 13 11 10 10 13 19 17 12 10 7 8 10 12 15 18 20 19 21 23 21 21 22 22 23 22 21 21 19 18 17 18 16 16 18 17 21 30 33 31 28 28 29 31 34 36 39 32 31 47 47 36 47 58 49 33 24 27 35 43 45 43 44 46
20 24 27 27 27 29 27 24 21 19 21 20 17 15 16 19 24 28 30 25 19 20 19 16 15 13 13 15 14 16 20 17 17 17 9 9 11 11 16 19 19 19 19 21 21 18 19 21 21 21 20 18 16 17 19 18 16 18 19 17 21 29 33 31 27 29 31 29 29 30 33 30 29 40 45 43 47 52 51 41 29 26 30 36 43 45 45 43
21 26 28 27 28 28 26 23 20 20 21 18 15 17 20 23 28 31 27 23 21 20 19 18 18 16 16 20 19 18 20 17 19 19 13 14 13 11 16 18 18 19 18 19 20 18 18 20 21 21 19 17 17 18 19 18 17 19 22 24 26 28 31 31 28 29 30 27 27 28 30 31 30 34 39 43 41 37 44 47 37 33 33 32 36 43 47 45
22 27 28 28 28 27 26 23 21 21 20 17 16 22 28 31 33 31 25 23 23 20 18 18 18 18 19 23 21 18 20 19 18 18 16 16 16 15 17 16 17 17 17 18 17 17 18 18 20 20 19 18 18 18 19 17 17 21 26 26 24 23 26 28 29 30 26 24 27 28 30 33 31 34 40 44 37 25 35 53 55 51 44 32 31 40 46 47
23 28 28 28 27 27 26 22 20 20 17 16 20 26 32 35 33 31 27 25 25 23 20 18 17 19 21 23 21 18 19 19 17 18 19 18 18 18 16 14 16 15 15 15 14 15 16 16 17 17 19 19 16 17 19 18 18 21 24 22 19 19 21 23 25 26 22 22 27 29 33 33 30 36 42 43 36 22 25 44 57 61 50 33 32 40 43 44
24 27 28 27 26 27 26 22 20 18 15 17 23 29 36 37 32 30 30 29 29 26 20 16 16 19 21 21 21 21 19 18 17 18 20 20 18 18 16 15 16 15 13 12 12 12 12 13 14 15 17 17 16 16 17 18 19 20 20 18 17 17 18 20 19 18 20 24 28 32 33 28 28 41 47 39 28 20 20 28 41 54 50 37 35 39 39 40
24 27 27 26 25 26 25 22 19 16 16 22 28 34 38 35 30 31 33 32 31 26 20 16 16 18 19 19 20 21 18 17 18 18 19 20 18 17 17 16 15 15 14 12 11 10 9 10 11 13 14 15 16 16 15 16 17 19 19 18 18 16 16 18 16 15 19 22 28 33 30 23 28 42 45 34 22 18 21 23 27 36 38 36 39 39 38 39
24 26 27 25 24 26 24 21 19 16 18 23 28 34 35 29 28 31 33 32 30 27 23 18 17 17 17 18 20 20 18 17 18 18 18 18 17 16 16 16 14 13 13 12 11 10 8 9 10 11 13 13 15 15 15 15 15 18 20 18 18 17 16 17 16 18 18 17 24 28 26 27 35 42 38 29 24 18 18 23 25 28 33 38 41 37 37 41
23 26 26 25 25 25 24 20 18 16 17 22 28 32 30 27 30 32 31 30 28 27 24 19 18 17 15 17 20 20 19 18 17 17 17 16 15 15 15 15 14 13 13 12 11 11 8 9 10 11 12 12 13 15 16 16 15 18 18 17 17 16 17 18 18 21 18 16 23 23 22 28 36 46 43 34 27 17 17 33 36 31 32 36 37 35 38 43
22 25 26 26 26 26 24 19 17 17 18 23 29 30 29 30 32 30 28 26 24 24 22 18 17 16 14 15 17 18 18 18 17 16 16 15 15 15 14 15 15 14 14 12 12 12 9 8 8 10 10 11 12 14 15 15 16 18 17 17 17 16 17 16 16 20 17 15 22 20 19 22 27 44 50 42 34 22 25 47 47 35 34 33 33 34 38 42
21 24 26 26 27 27 24 19 17 17 18 24 30 32 34 34 31 26 24 21 19 20 21 18 17 16 14 13 14 16 16 16 16 16 15 15 15 15 15 15 14 14 15 14 13 13 12 8 9 11 11 11 13 14 15 15 15 17 17 17 17 15 16 16 14 16 15 15 18 16 18 18 21 40 49 44 41 30 32 47 45 43 46 38 33 35 35 39
20 23 25 27 27 27 25 20 18 17 21 29 36 37 36 33 29 26 24 21 18 20 21 19 16 16 15 12 13 15 15 15 15 15 16 15 15 16 15 15 15 14 14 15 14 14 13 10 9 12 12 12 13 14 15 15 15 17 17 17 17 14 15 17 15 14 14 15 17 15 18 18 19 35 45 43 42 34 34 42 42 51 56 43 35 34 33 36
19 21 25 28 28 28 25 20 17 19 27 35 38 38 35 30 27 24 24 24 21 23 25 21 17 15 14 14 14 14 15 15 15 15 15 15 15 16 15 15 16 15 15 15 15 14 13 12 11 12 13 12 14 15 14 14 14 17 17 15 15 14 15 16 15 16 14 15 17 15 16 19 20 30 39 42 42 36 36 42 43 54 59 44 34 34 33 36
18 22 26 28 29 29 26 22 18 20 30 39 38 37 35 30 26 23 24 24 22 23 22 19 18 17 15 14 14 15 15 16 15 14 15 16 15 15 14 14 16 16 16 16 16 15 13 12 12 12 11 12 13 14 14 13 13 15 17 16 15 14 14 14 14 17 15 14 16 13 14 22 23 26 36 42 42 38 40 41 41 54 61 45 33 35 37 37
19 26 29 29 31 30 26 24 20 20 30 40 39 37 36 32 28 24 23 23 23 23 22 20 20 20 18 16 15 15 15 15 15 14 14 14 14 15 14 14 15 16 16 16 16 15 14 13 13 12 11 11 12 13 13 13 12 14 15 15 15 14 13 13 13 15 14 14 15 12 15 27 26 22 32 44 44 42 43 41 40 55 63 47 35 37 39 39
17 24 28 30 32 29 28 29 27 25 30 37 36 36 36 34 31 27 24 25 26 26 26 26 25 25 23 21 21 22 19 17 17 15 15 15 14 15 14 13 14 15 16 16 15 14 14 14 13 13 12 11 11 11 11 11 11 12 13 13 14 14 13 13 12 13 13 13 15 12 16 31 31 21 27 42 46 45 45 45 51 62 59 43 37 39 40 42
16 19 24 29 32 30 31 36 37 34 32 32 35 37 36 35 33 31 28 29 29 27 28 29 28 27 26 24 26 26 22 20 20 18 16 16 15 14 14 14 14 15 15 14 14 13 12 14 14 13 13 13 12 11 11 11 11 11 12 12 13 14 13 13 13 14 13 13 14 11 16 32 31 21 25 35 42 47 48 49 59 65 53 39 38 41 41 40
16 18 21 24 28 32 32 31 29 27 27 32 38 38 37 37 35 32 30 30 29 28 29 28 25 24 25 24 25 25 23 22 22 20 17 16 16 14 13 13 13 15 15 14 15 13 11 15 16 13 13 13 13 13 12 12 12 11 12 13 13 13 14 14 14 13 14 17 15 11 21 33 29 24 28 32 38 47 51 54 59 53 42 37 39 40 41 40
16 21 21 20 25 31 33 29 24 20 24 35 40 38 37 37 35 33 32 32 30 29 29 28 25 24 26 27 28 29 27 24 24 24 22 21 21 15 12 13 13 14 15 14 15 15 13 17 17 14 14 14 13 14 14 12 12 12 12 13 13 13 14 14 13 12 14 18 16 15 24 33 31 31 34 36 41 47 51 59 57 42 34 38 40 39 41 40
16 19 20 20 25 30 33 33 28 22 25 35 39 37 37 36 36 35 33 32 32 31 31 30 29 29 28 26 28 30 29 28 28 29 27 25 24 17 12 12 12 12 13 13 13 15 15 15 15 15 15 15 14 14 13 13 14 13 13 13 13 13 15 14 13 14 15 14 15 17 24 30 35 38 38 40 47 52 55 58 50 37 35 39 40 41 43 38
16 19 20 21 26 31 33 34 30 25 26 33 37 37 37 36 36 35 33 32 32 31 34 36 32 28 25 22 25 29 30 31 31 29 27 25 23 20 15 12 12 11 12 13 13 15 15 12 14 14 13 14 13 11 11 13 14 15 18 17 14 14 16 14 13 17 18 17 18 20 22 27 33 38 41 45 51 55 55 48 38 36 38 39 41 44 42 38
17 19 23 24 27 31 32 32 31 29 29 33 37 37 37 36 35 35 33 34 34 32 35 37 33 28 25 22 25 29 28 28 28 26 23 21 22 24 20 13 12 11 12 14 13 13 14 14 15 14 15 19 16 10 10 13 14 16 17 17 16 16 16 15 16 17 17 18 20 20 24 30 33 38 46 51 49 45 41 37 36 39 40 41 44 44 42 41
20 19 20 24 28 31 32 33 32 31 31 35 40 40 37 37 36 35 33 33 35 32 29 31 33 30 29 26 25 29 27 25 27 25 23 23 24 26 25 19 13 11 13 15 13 11 14 17 18 17 19 22 17 10 11 14 17 20 19 16 15 16 16 16 16 14 14 18 20 21 29 35 36 39 42 40 37 34 34 37 40 41 42 43 45 45 43 39
20 21 18 20 25 28 33 34 32 35 37 35 39 42 40 38 37 36 34 33 34 32 27 28 30 30 32 30 27 30 29 27 27 26 25 26 25 25 25 20 14 12 13 15 14 13 14 19 23 21 19 21 20 17 18 20 21 26 28 22 15 17 20 19 16 15 18 23 23 24 31 34 31 32 31 27 29 32 35 40 42 42 44 45 47 46 40 32
13 20 20 18 20 24 30 33 35 45 49 38 36 42 42 41 39 37 37 36 34 34 30 28 28 29 35 36 30 30 30 28 28 27 26 26 24 23 22 16 12 13 14 15 15 13 14 20 25 22 18 20 24 25 26 26 22 24 29 24 16 15 19 19 16 14 16 23 26 26 30 30 25 26 29 30 33 34 36 40 43 43 45 46 47 41 31 28
Wind_Speed
7 5 4 3 1 1 3 4 6 7 8 10 10 10 11 11 11 10 10 11 13 15 15 15 15 16 16 17 17 16 15 14 12 9 8 7 5 4 3 4 6 8 10 12 13 15 15 16 16 16 18 19 19 19 18 16 16 16 13 12 13 13 11 10 8 8 15 19 19 16 14 13 11 10 10 10 10 9 8 6 7 7 7 8 9 9 9 8
8 7 6 5 3 2 1 3 4 6 8 9 10 11 11 11 12 12 11 11 13 15 16 16 16 16 17 17 18 17 16 14 11 9 9 8 7 5 3 3 6 8 10 11 13 14 14 15 15 15 16 18 19 18 18 17 17 15 11 12 14 12 12 11 11 13 14 15 15 14 12 11 9 9 11 11 9 7 6 6 6 6 6 8 10 10 10 10
9 8 7 6 5 4 2 1 3 5 6 8 10 12 12 12 12 12 12 12 12 14 16 17 16 17 17 18 19 18 17 14 11 11 10 9 8 6 4 3 5 7 9 10 12 13 14 15 14 14 15 17 17 17 18 17 17 16 13 12 12 11 12 11 12 12 12 12 12 11 10 8 7 9 10 10 9 7 6 6 6 7 7 8 9 10 10 10
10 9 8 8 7 6 4 2 1 3 5 7 9 11 12 13 13 13 13 13 12 13 16 18 18 18 18 18 19 18 17 13 12 13 12 11 9 7 5 4 4 6 7 9 10 11 13 14 13 13 14 15 15 16 17 16 16 17 14 11 10 10 10 11 13 12 12 12 10 10 9 7 7 7 9 10 9 5 5 6 7 8 8 7 6 8 8 9
11 11 10 8 8 7 6 4 2 1 3 5 7 10 12 13 14 14 14 14 13 13 15 18 19 19 18 19 19 19 17 11 14 16 14 12 10 8 6 4 3 4 5 7 9 10 12 14 13 13 14 13 13 13 14 16 16 15 14 12 10 8 7 10 13 13 12 12 11 9 8 7 7 6 7 8 7 4 4 6 7 8 9 8 6 6 6 7
12 12 11 10 8 8 7 6 4 2 2 3 6 8 10 13 14 14 15 14 14 14 15 17 20 20 19 20 20 20 17 12 15 18 15 14 11 9 7 4 2 2 4 6 8 9 11 13 13 14 15 12 9 10 12 17 17 12 13 14 12 10 8 9 11 12 12 12 10 9 8 8 7 5 3 3 3 3 5 5 6 7 7 8 8 6 6 6
12 12 12 11 9 9 8 7 5 4 2 2 4 6 9 11 13 15 15 15 15 15 15 16 19 21 21 21 21 21 20 16 17 19 17 15 13 10 8 5 3 0 3 5 7 8 10 12 13 14 14 10 8 9 11 17 18 12 11 14 14 13 10 9 9 9 10 10 9 8 8 7 6 5 2 2 0 2 4 5 6 6 6 8 9 8 7 6
12 12 12 11 10 9 9 8 6 5 3 2 2 4 7 10 12 15 16 16 16 16 16 16 18 22 22 22 22 22 22 19 17 19 19 17 15 11 9 7 4 2 1 3 5 7 9 11 12 12 11 9 8 9 11 14 15 12 10 14 15 14 13 11 9 8 8 7 7 6 6 5 5 4 2 2 2 3 2 6 6 6 8 9 10 9 8 7
12 12 12 12 11 9 9 8 7 5 4 3 3 3 5 8 11 14 16 17 17 17 17 17 18 21 23 23 23 22 23 22 19 21 21 19 16 13 11 8 5 3 0 2 5 6 8 9 10 10 9 9 9 9 11 9 9 12 12 14 15 14 13 12 11 9 8 7 6 6 4 3 3 2 0 1 3 2 2 5 6 6 8 10 10 10 9 8
13 13 12 12 11 10 9 9 7 5 5 4 4 3 4 6 9 12 15 17 18 18 18 18 18 19 22 24 24 22 25 25 22 22 22 20 18 14 12 9 7 4 1 2 4 4 6 7 7 8 8 10 9 9 11 8 7 11 12 12 14 14 13 12 11 10 9 8 7 7 5 3 3 3 2 1 1 1 3 5 6 6 9 10 10 10 10 8
13 13 13 13 11 10 9 10 8 5 5 5 4 4 4 5 7 10 14 17 18 19 19 19 19 19 22 24 26 25 25 26 24 23 23 22 19 16 14 10 8 5 2 2 3 3 4 5 5 7 7 8 9 8 12 11 8 10 11 12 13 14 13 12 11 10 9 9 9 8 7 6 5 5 2 1 1 2 4 5 5 6 8 9 9 9 8 7
13 13 13 13 12 10 9 10 8 6 6 6 5 4 5 5 6 9 12 16 18 19 20 20 20 20 21 24 27 26 25 27 26 24 24 23 21 18 15 12 10 7 5 4 3 2 2 3 5 6 5 6 7 6 10 12 9 9 9 8 11 13 12 11 9 8 8 9 9 9 8 8 6 4 3 3 3 3 4 5 4 5 6 7 8 7 7 6
12 13 13 13 12 11 9 10 9 7 7 6 5 5 5 4 5 7 10 14 17 19 21 21 21 21 21 23 26 26 26 27 27 25 24 23 22 20 17 15 12 10 8 6 4 3 2 3 4 5 5 6 6 5 8 12 10 7 6 4 6 6 6 10 8 6 8 8 8 8 8 7 5 4 5 5 4 3 4 4 4 3 4 5 6 6 6 7
12 13 13 13 12 11 9 10 9 8 7 7 5 5 5 4 5 6 9 12 15 19 21 22 22 22 22 23 25 27 27 27 27 26 25 23 22 20 19 17 14 12 10 8 5 4 3 3 4 5 5 5 7 8 7 11 9 4 4 3 2 3 4 9 8 5 6 7 7 9 8 6 4 3 5 5 5 4 4 3 2 1 2 3 5 5 6 8
12 12 13 13 12 10 9 10 10 8 7 7 6 5 6 5 5 6 8 10 13 17 20 22 23 23 23 22 23 27 28 27 28 27 25 23 22 21 20 18 16 14 12 9 7 6 5 4 4 5 6 6 8 7 3 4 4 3 5 4 3 4 4 7 8 5 3 4 5 8 7 5 3 2 3 4 4 5 5 4 2 1 0 1 4 6 6 6
12 12 12 13 12 10 9 9 10 7 6 7 6 5 6 5 5 6 7 9 12 15 18 21 22 23 21 21 23 26 28 29 29 28 26 23 22 21 20 19 17 16 14 11 9 8 7 6 6 6 6 6 5 4 3 4 1 2 6 5 4 4 4 3 7 5 3 3 3 5 6 4 2 1 2 2 2 2 3 3 2 1 0 1 3 4 4 3
12 12 12 13 12 10 8 9 9 7 5 6 6 6 6 6 5 6 7 9 10 13 17 19 23 24 20 20 22 25 28 30 30 29 26 24 22 22 20 19 18 17 16 13 11 11 10 9 7 6 5 4 3 5 5 3 4 4 7 6 4 3 2 1 3 4 2 3 2 3 4 4 2 2 2 2 1 1 1 1 1 1 1 2 2 3 3 2
12 11 12 12 12 10 8 9 9 6 5 6 7 7 7 6 6 6 7 8 10 12 13 17 22 19 16 19 22 24 28 29 30 29 27 25 23 23 22 20 19 18 17 15 13 13 11 11 9 5 5 4 3 5 5 7 8 9 9 8 5 2 2 2 2 1 2 3 2 2 3 3 2 2 3 3 3 3 2 1 3 3 3 3 4 5 5 4
11 11 11 12 12 10 9 8 8 6 5 6 7 7 7 7 6 6 7 9 10 11 10 15 21 17 14 19 23 25 26 28 29 29 27 26 24 24 23 22 21 18 16 15 14 15 12 11 9 7 7 5 3 5 6 7 8 9 10 9 6 2 2 3 4 3 3 4 2 1 2 2 1 2 3 4 4 4 3 2 3 4 4 5 5 6 7 7
11 11 11 12 12 10 9 8 8 6 6 6 7 7 7 7 5 6 7 8 10 12 12 15 20 22 19 20 24 25 25 27 28 28 29 27 25 24 24 23 21 19 17 12 12 16 14 11 11 9 6 4 5 7 7 8 9 10 10 9 6 2 1 3 4 4 4 3 1 1 0 1 1 2 3 4 6 5 4 3 3 4 4 5 5 6 7 7
10 10 10 11 11 10 9 9 8 6 6 6 7 7 7 7 5 6 7 7 9 12 14 15 19 23 21 20 24 26 25 26 27 29 29 28 26 24 24 24 21 18 17 14 13 15 14 12 12 10 8 7 7 7 8 9 10 10 9 8 5 0 2 4 5 6 5 2 0 2 1 2 2 3 4 6 6 5 5 4 3 3 4 4 4 5 6 6
9 9 9 10 11 10 9 9 8 6 6 5 6 6 6 7 6 6 6 7 8 9 12 14 16 19 21 21 24 26 26 25 26 28 29 29 28 22 21 24 21 16 15 18 16 13 15 15 13 11 10 9 9 9 10 10 10 9 8 8 4 2 4 2 3 6 6 2 0 2 2 2 4 4 4 5 6 6 6 5 4 3 3 3 3 4 4 4
9 8 8 9 10 9 9 9 8 6 5 5 5 5 5 6 6 6 6 6 7 7 10 12 13 18 22 22 24 26 25 23 23 27 30 30 27 24 24 24 21 16 15 17 16 13 13 12 12 15 15 12 10 10 11 11 10 7 7 8 3 2 2 1 3 8 7 3 1 2 3 2 4 5 4 5 5 7 8 6 5 3 2 2 3 4 4 4
8 8 7 8 10 9 8 8 7 5 5 4 5 5 5 5 4 4 5 6 7 8 9 10 13 17 21 23 23 23 24 24 22 25 29 29 28 28 27 23 19 18 16 14 15 16 12 10 13 13 12 10 8 8 8 9 8 4 4 6 3 2 2 1 3 6 6 5 3 4 5 2 1 3 3 6 6 6 7 6 5 3 2 2 3 4 4 4
8 7 6 7 9 9 8 7 6 4 4 4 5 5 4 3 2 3 3 3 5 8 9 10 12 15 20 22 21 21 23 23 23 26 29 29 29 28 25 25 22 16 17 18 17 16 13 15 18 13 8 7 7 8 7 7 8 4 2 6 5 1 3 3 4 4 5 3 3 5 5 2 5 2 2 5 6 7 7 6 5 4 2 3 3 4 4 4
8 6 5 6 7 8 8 6 5 4 4 4 4 4 3 2 2 1 0 2 3 6 8 10 10 12 18 19 19 21 19 18 24 26 27 29 30 27 23 26 25 16 15 20 17 15 16 19 22 17 12 10 9 10 8 7 9 5 2 7 7 1 5 6 5 3 1 1 2 4 5 2 6 4 2 3 5 6 7 7 6 5 4 4 4 4 5 5
7 5 4 5 6 7 7 6 5 4 4 4 3 3 2 1 1 1 1 3 4 5 7 9 10 11 16 18 18 17 12 15 23 24 25 28 29 29 23 21 24 21 18 18 15 16 19 21 22 19 15 13 11 9 7 6 9 7 4 7 6 2 6 7 5 2 2 2 3 2 4 5 4 4 4 3 4 5 7 7 6 5 4 4 5 5 5 5
6 3 4 5 4 5 7 6 5 4 4 3 2 3 1 1 1 2 2 3 4 4 5 8 10 11 15 17 18 16 10 12 16 19 25 26 26 28 22 17 19 19 20 20 15 14 16 17 17 16 14 13 10 9 8 6 8 9 7 6 3 4 6 5 4 2 1 2 4 1 3 5 5 5 5 3 4 3 5 6 6 5 4 4 4 5 5 6
4 2 4 5 4 4 5 6 5 3 3 2 2 1 2 2 2 3 3 2 4 3 4 6 8 11 15 15 17 17 12 11 11 14 22 22 22 24 20 18 18 16 21 25 16 11 13 16 17 18 16 11 9 12 12 8 7 8 7 5 1 4 6 5 4 1 2 5 4 1 4 5 6 7 4 4 3 2 3 5 5 5 4 4 4 5 5 6
2 2 4 4 3 3 4 5 4 3 2 1 2 2 2 3 3 2 4 2 4 2 4 7 8 12 16 14 16 16 11 12 12 12 17 18 20 23 20 21 22 18 18 23 20 14 13 16 18 19 16 11 12 14 12 8 6 5 4 2 3 3 2 4 3 2 5 4 1 2 4 5 3 4 3 3 2 2 2 2 5 5 4 4 4 5 5 6
2 3 4 3 3 3 4 3 2 2 2 2 3 4 4 4 2 4 3 4 3 2 4 7 9 14 16 12 14 16 11 9 11 12 14 16 16 18 20 20 21 19 14 17 21 17 17 18 16 17 17 14 12 12 10 9 6 3 2 3 4 2 2 6 4 5 5 0 2 5 2 3 3 3 3 2 3 2 4 1 4 4 3 3 4 5 4 4
3 4 4 2 2 3 4 3 1 2 2 3 4 6 4 1 3 2 1 3 3 2 4 7 11 13 15 12 12 15 13 9 11 12 12 14 14 15 18 16 15 18 18 17 19 17 19 21 17 17 20 17 10 8 10 9 6 6 6 7 8 4 4 6 4 4 3 1 3 6 2 2 1 1 1 2 2 3 6 3 3 3 2 4 5 5 4 3
4 4 3 2 2 2 3 2 1 1 3 5 5 6 3 4 4 2 2 3 3 4 5 8 12 11 13 14 11 14 14 9 10 12 12 13 13 13 16 16 15 15 15 15 17 17 16 18 19 19 20 20 16 12 10 9 9 9 8 8 8 4 4 5 3 3 1 2 3 4 3 3 1 3 5 2 2 5 7 4 4 5 3 4 6 5 5 3
5 3 2 2 1 1 1 1 0 2 5 6 7 6 3 4 2 3 2 1 2 6 7 9 11 9 11 14 13 14 15 11 10 11 12 14 14 14 15 18 19 16 11 10 13 16 15 14 19 22 20 19 19 17 11 7 9 10 9 9 8 6 5 4 3 3 2 3 2 2 3 2 0 4 4 2 4 6 7 5 4 6 5 6 6 5 4 3
6 4 2 1 0 0 1 1 2 4 6 7 7 4 5 3 2 2 2 2 3 5 7 10 9 8 10 13 14 15 14 10 10 10 11 13 15 15 14 16 20 19 14 11 10 13 15 11 11 19 22 17 15 18 14 8 9 10 9 10 9 6 5 5 6 6 6 2 2 3 2 3 3 3 2 1 4 8 7 6 5 6 8 7 6 5 4 3
6 4 2 1 0 1 1 1 3 5 6 7 6 4 5 2 2 2 3 5 6 7 8 10 9 8 10 13 15 16 13 9 9 11 12 13 14 15 14 13 18 19 17 13 8 9 14 13 9 12 19 18 15 16 17 12 8 7 10 13 10 6 5 7 6 3 6 6 2 3 3 2 2 4 3 1 4 8 8 7 5 6 8 7 6 5 4 3
6 5 3 1 0 2 1 2 4 6 7 7 5 5 3 2 3 4 6 6 7 9 10 9 9 9 10 13 15 15 14 10 9 11 12 12 12 14 15 13 15 19 18 14 10 7 11 13 12 12 15 21 19 15 17 16 11 8 9 11 9 7 7 8 7 3 6 6 1 2 4 2 3 5 5 4 6 9 9 7 5 6 8 7 6 5 3 2
7 6 4 2 0 1 1 2 5 7 8 7 5 4 3 3 3 4 6 7 8 10 9 6 8 9 9 13 14 14 15 12 10 11 11 11 9 10 14 15 15 17 18 16 11 8 9 10 11 11 12 19 19 13 14 17 16 13 7 6 9 9 6 8 7 5 5 4 1 1 4 2 0 3 7 7 9 10 10 9 6 5 7 6 6 4 2 1
7 6 5 3 1 1 2 3 5 8 8 6 4 3 3 3 3 3 5 7 8 9 8 4 5 9 9 10 11 13 15 12 10 11 10 10 8 6 10 14 14 15 17 18 13 8 9 10 9 11 13 17 19 16 15 15 16 17 11 7 10 9 5 4 6 6 5 4 1 1 2 2 5 1 7 9 11 12 11 10 7 5 6 7 5 3 1 2
7 7 6 5 2 2 3 3 6 9 8 6 5 5 4 3 3 4 5 6 7 7 6 4 5 8 10 9 10 12 14 11 9 10 9 8 8 7 8 10 12 15 16 18 16 11 10 12 9 10 13 16 19 19 18 14 14 17 15 12 12 10 7 6 6 6 7 5 2 3 1 4 2 4 8 10 12 13 12 10 8 7 7 7 5 2 2 3
7 7 7 6 3 2 3 4 7 10 8 6 5 5 5 4 4 4 4 6 7 6 7 7 6 7 10 9 8 10 11 11 10 10 8 8 9 6 5 7 10 15 17 18 18 15 12 12 9 8 14 18 18 18 18 15 13 15 16 16 14 12 10 8 6 4 6 6 4 5 2 3 3 7 10 10 12 13 13 10 8 7 7 7 5 2 1 3
7 8 8 7 4 3 4 5 7 10 9 6 6 6 5 5 4 5 5 7 9 8 8 8 6 6 8 8 7 8 10 10 10 11 10 9 9 6 3 5 8 13 16 18 19 18 14 11 9 8 12 15 14 16 19 18 15 14 14 15 14 14 13 10 6 3 5 6 5 7 3 2 3 6 10 12 12 13 12 10 8 9 8 6 4 2 1 3
8 9 9 8 6 4 4 4 5 8 8 8 8 7 6 6 5 7 8 8 9 9 8 8 7 5 5 6 6 6 8 10 10 11 11 10 9 9 8 6 6 10 14 15 17 19 17 12 11 10 10 10 8 11 15 16 16 15 15 15 14 14 14 12 8 5 6 6 5 7 2 4 3 5 9 13 13 13 11 10 9 9 8 6 4 2 1 3
7 8 10 9 7 5 5 6 6 7 10 10 9 7 7 7 7 8 10 10 10 11 10 8 7 6 5 3 2 4 5 6 7 8 10 10 10 11 11 10 9 9 12 14 15 19 18 14 13 13 11 10 10 11 13 15 16 16 15 15 17 15 13 12 9 8 9 6 5 8 1 4 4 5 9 13 13 13 11 10 9 8 7 5 4 1 1 3
6 8 10 10 9 7 6 8 10 11 12 11 10 9 7 7 7 8 9 10 10 11 10 8 7 6 4 4 3 1 1 2 3 4 5 6 7 9 11 12 13 12 11 12 14 17 17 13 15 15 12 11 12 12 14 15 16 15 14 15 17 16 15 14 11 11 9 4 7 8 0 4 6 8 10 12 13 13 11 10 9 7 6 5 4 2 2 2
7 8 10 10 10 9 7 7 10 12 14 12 10 10 8 8 8 8 8 9 9 9 9 8 7 6 4 3 3 3 2 3 3 1 1 2 5 9 12 12 12 14 14 13 14 16 15 13 14 15 13 11 9 7 9 12 14 15 16 16 18 18 17 15 14 12 7 4 9 8 2 7 10 12 12 13 13 13 12 10 8 7 7 5 4 3 2 1
8 9 10 10 10 10 9 8 9 12 15 14 12 11 10 9 9 8 8 8 7 6 6 6 5 5 4 4 3 2 2 3 4 3 1 1 3 6 9 12 13 14 15 15 15 16 15 14 14 14 13 11 6 4 8 12 14 14 14 15 17 18 17 18 16 10 7 8 10 6 3 10 14 14 14 15 14 13 11 10 8 8 7 5 4 4 2 1
8 9 10 10 10 10 11 11 10 12 15 15 13 13 12 11 10 9 8 8 7 6 5 4 4 5 4 5 3 2 1 2 3 3 2 2 1 2 5 11 14 14 15 16 16 15 15 14 13 13 12 11 10 9 9 11 14 14 14 15 17 19 19 18 15 12 11 12 8 4 4 9 12 12 13 16 15 13 12 11 9 8 6 5 5 4 2 0
9 9 10 11 12 11 11 12 11 12 14 15 14 14 14 12 11 9 9 9 8 7 6 5 4 4 4 3 4 2 1 2 2 2 3 3 4 3 0 7 13 15 15 16 17 17 13 11 12 12 11 11 12 12 10 11 13 14 16 18 18 19 19 16 16 19 19 13 7 3 5 10 11 12 15 17 15 14 13 12 10 8 5 5 5 4 2 1
8 10 10 11 12 12 11 10 12 12 14 15 14 14 15 14 12 11 10 10 9 8 7 5 4 3 2 2 3 2 2 2 1 3 4 5 4 4 2 5 11 15 16 15 16 16 11 10 12 11 10 10 12 13 12 13 13 13 15 18 19 19 18 17 19 21 18 11 6 5 10 13 15 17 19 18 15 15 15 12 9 7 5 5 6 5 2 2
7 9 10 11 12 13 12 11 11 11 13 16 16 14 15 14 13 12 12 11 11 10 9 7 5 3 2 3 4 2 1 2 1 2 3 4 4 3 2 8 13 15 15 15 15 15 12 9 9 9 11 10 9 10 11 11 12 11 10 13 17 17 16 16 18 18 12 6 5 9 12 14 17 19 18 17 16 16 14 11 8 6 4 4 5 4 3 3
5 8 10 11 11 13 13 12 11 10 11 16 17 16 14 13 13 14 13 13 12 11 10 9 7 5 3 4 6 5 5 5 4 3 3 3 2 2 2 10 16 16 15 15 14 15 14 10 8 9 11 9 7 8 9 11 13 11 8 9 13 15 14 15 17 17 12 7 7 10 11 13 18 20 18 18 18 15 12 10 7 5 3 4 5 5 4 4
Wind_Direction
12 12 12 6 343 252 232 229 224 220 220 220 219 218 219 222 221 219 213 206 202 200 198 194 189 184 183 184 184 183 180 181 180 184 200 194 172 152 124 78 58 47 44 44 45 46 42 38 35 35 34 31 32 30 30 30 36 46 35 32 43 35 38 56 68 115 139 141 140 142 139 130 125 124 127 129 135 135 124 109 114 122 124 128 136 152 164 161
11 11 11 10 7 353 259 235 230 223 220 219 219 218 216 218 220 219 216 209 203 200 199 197 192 188 184 184 185 185 185 185 182 192 198 185 172 165 149 91 64 51 45 44 45 45 40 35 28 28 30 32 31 27 27 29 36 46 37 33 44 44 49 68 92 116 133 136 136 137 134 130 127 129 125 123 125 121 107 97 106 107 114 129 135 147 159 161
9 8 8 9 7 6 0 277 239 230 222 218 218 218 216 215 217 218 216 211 205 201 199 198 195 192 187 185 186 187 188 186 188 200 196 182 177 176 166 119 73 51 42 42 44 42 37 30 23 23 29 33 31 27 27 26 37 49 45 36 42 53 60 78 100 114 126 130 133 134 132 130 131 131 123 120 118 116 111 100 100 93 100 124 133 143 157 165
3 3 5 5 4 3 4 0 268 242 229 223 218 217 217 215 214 215 215 213 207 202 199 198 196 194 190 186 186 189 190 190 199 203 197 187 183 184 178 145 83 47 37 39 40 39 34 28 21 21 28 32 29 31 30 27 40 49 46 46 46 54 67 86 102 113 121 129 135 135 134 132 137 133 125 122 114 120 128 112 109 103 103 112 127 139 154 166
358 357 357 359 360 358 358 4 350 276 244 232 223 217 216 215 214 213 214 212 208 205 200 198 197 194 193 188 187 190 187 193 207 202 197 191 187 191 184 159 100 43 28 30 32 33 31 25 20 22 30 32 28 31 27 27 42 47 43 50 51 57 81 93 106 115 120 130 135 137 136 134 141 133 125 120 112 123 113 96 111 122 122 120 125 135 144 159
351 350 350 353 355 354 353 355 359 348 286 245 231 222 215 215 214 212 212 211 208 207 203 199 197 194 193 190 188 189 185 198 209 199 196 194 191 196 189 179 151 35 15 19 19 26 28 25 21 26 35 32 30 40 31 31 43 50 43 48 53 59 85 100 109 118 124 133 138 145 145 140 144 137 126 115 109 108 82 82 113 130 143 135 131 132 134 149
344 344 344 346 349 349 347 348 357 1 339 275 245 233 220 214 212 213 211 210 208 206 205 201 197 195 193 191 190 190 190 204 207 198 197 195 196 199 195 200 194 329 0 10 8 20 27 27 26 33 39 27 30 45 34 33 41 52 49 48 52 55 72 97 108 117 126 136 144 150 150 147 152 151 154 150 163 2 63 103 126 133 153 145 137 138 139 150
337 337 338 341 345 345 342 343 352 0 354 327 273 247 231 217 211 212 211 210 208 206 206 203 198 195 193 192 192 192 195 204 204 199 199 196 199 201 201 208 208 248 350 14 1 17 25 29 28 33 39 24 35 40 27 31 33 40 48 48 53 55 64 81 93 103 111 125 135 139 144 149 160 173 178 180 262 305 71 114 121 132 150 152 150 148 150 159
332 332 332 335 340 342 338 337 348 358 354 341 315 265 244 227 212 210 209 210 208 207 206 204 201 196 193 193 193 195 198 201 204 203 201 199 203 205 206 210 214 240 331 5 355 20 25 28 27 32 45 34 39 34 27 37 30 33 41 45 53 55 61 72 77 83 88 94 108 114 120 139 160 163 179 257 267 292 86 103 103 125 149 154 157 156 156 164
330 328 328 330 335 339 335 333 343 354 348 340 328 290 260 240 217 208 208 209 208 207 206 204 203 198 195 194 193 199 199 199 204 206 204 203 207 210 211 212 218 231 191 315 339 22 22 29 25 27 41 35 35 29 28 38 29 33 37 41 52 53 56 65 70 75 82 84 92 99 97 103 113 92 60 298 272 37 73 87 93 120 151 158 161 164 164 169
328 327 325 325 329 336 331 328 337 348 343 333 326 309 279 252 225 210 207 208 207 206 206 205 204 201 198 195 195 199 198 198 203 207 207 207 211 215 215 216 223 229 214 264 315 1 9 26 24 20 29 25 22 12 14 19 22 30 33 35 42 50 51 54 64 70 77 86 87 90 86 76 77 80 62 18 58 62 69 78 91 118 147 158 164 169 170 180
325 324 324 323 324 331 329 323 329 340 337 327 324 316 290 264 236 217 208 207 206 205 206 206 204 203 200 198 199 199 198 199 202 206 210 210 214 219 219 219 223 226 223 238 282 328 345 10 12 18 28 25 19 3 2 10 22 30 37 35 26 41 46 39 54 64 71 88 85 81 78 71 69 76 72 56 71 77 83 86 89 117 143 154 163 171 175 187
321 321 323 322 321 324 325 318 321 332 330 324 325 313 296 274 246 227 213 209 206 205 205 207 206 204 203 202 202 200 200 201 201 205 212 213 215 219 221 221 221 224 225 232 258 291 305 343 358 9 23 27 18 3 359 11 30 33 33 34 11 42 39 21 43 60 66 85 87 79 73 71 72 74 73 66 77 80 90 100 93 113 145 155 162 171 184 199
317 319 321 321 319 319 319 313 314 325 324 321 322 311 298 280 255 236 220 212 207 205 205 206 207 205 205 205 203 202 202 202 203 205 211 214 214 218 221 222 222 224 227 232 247 274 282 304 333 348 4 17 4 1 4 15 34 26 16 44 9 54 30 9 33 50 55 78 87 79 69 74 81 72 71 62 68 68 68 83 79 98 142 166 172 181 196 209
313 316 318 320 319 316 315 309 310 319 321 317 319 309 294 283 264 239 225 216 209 206 204 205 207 206 209 209 204 203 203 203 205 207 209 212 213 215 219 221 223 226 230 233 242 262 267 281 316 331 346 6 5 3 358 355 16 343 354 38 36 46 51 19 26 35 47 76 88 76 60 71 92 82 86 65 61 66 64 67 54 52 57 190 197 207 214 220
310 313 316 318 318 317 314 307 307 316 316 311 314 303 291 285 268 244 231 222 212 207 204 204 206 206 210 212 207 204 203 204 206 208 208 210 213 216 218 220 223 228 232 234 240 256 263 272 293 305 324 353 359 336 272 276 305 0 355 16 27 42 91 49 22 25 53 70 85 84 65 61 49 42 78 64 58 59 61 65 54 58 278 237 223 229 232 242
308 311 313 315 317 318 315 307 307 313 308 303 304 296 288 284 274 252 233 225 217 211 205 204 204 205 209 210 208 207 205 204 206 208 208 209 212 216 219 220 223 228 232 236 240 251 260 266 283 304 311 319 317 293 286 334 29 24 2 9 22 38 82 77 12 15 60 83 81 84 74 58 26 6 355 2 18 0 26 34 3 341 288 264 267 276 276 272
306 308 311 312 314 317 318 309 306 306 294 291 294 292 289 286 279 260 236 226 221 213 208 207 202 200 209 208 207 210 206 205 207 207 207 208 211 214 217 221 224 228 233 238 241 246 256 264 271 282 280 279 290 293 320 6 8 355 353 358 2 34 67 93 109 69 89 111 113 86 70 67 46 13 345 338 347 341 343 335 314 311 313 308 306 307 306 299
303 305 307 309 310 316 320 312 303 297 282 281 290 294 293 291 287 269 241 227 220 209 207 210 199 191 202 207 208 211 209 207 207 207 207 208 210 213 216 221 224 226 230 236 242 242 246 259 263 256 251 258 283 299 326 342 337 338 341 342 343 351 75 106 139 150 135 123 131 117 62 63 55 12 349 343 348 345 339 323 313 312 308 307 309 310 312 316
299 300 303 305 307 313 320 314 302 288 275 277 289 296 297 301 295 270 244 229 223 214 212 211 201 195 198 202 206 209 209 210 209 207 208 207 209 211 213 218 223 226 227 225 235 239 237 246 249 245 249 268 293 296 308 316 320 328 327 330 332 313 113 133 155 157 145 133 134 204 9 9 328 329 333 345 354 353 343 331 318 311 303 303 303 301 307 319
295 295 298 299 302 311 319 314 302 286 275 277 291 299 300 298 278 257 247 233 228 223 220 216 207 201 200 203 206 206 208 210 210 208 207 207 208 210 212 215 219 225 225 216 220 233 236 242 245 243 254 270 285 296 303 312 318 318 320 325 321 265 117 140 165 168 164 146 203 239 276 302 287 310 334 340 348 348 337 326 309 298 297 296 288 285 299 320
292 291 292 293 297 309 317 313 304 290 276 277 292 298 292 285 268 257 253 240 232 226 225 220 211 204 202 205 206 205 206 207 209 209 208 208 207 207 210 212 214 217 224 223 221 231 237 241 246 245 252 269 283 295 305 316 316 310 312 315 313 129 123 137 195 187 178 155 327 252 283 307 294 313 336 336 339 334 330 324 305 291 291 294 287 284 301 330
290 286 285 288 293 306 317 313 307 293 277 281 291 289 278 273 270 264 254 246 240 224 222 219 212 206 204 207 206 204 205 204 207 210 209 207 206 207 209 210 213 214 222 225 216 219 232 234 237 246 257 270 285 291 301 313 308 305 313 314 321 148 159 210 224 201 193 213 264 270 277 288 317 329 336 335 335 330 331 329 313 305 290 286 293 292 306 340
288 283 281 283 289 305 317 313 308 292 278 283 287 281 270 264 263 263 247 243 243 227 218 216 209 207 206 207 205 202 204 201 201 209 209 206 207 210 211 210 212 217 220 220 215 219 231 228 225 244 267 269 273 283 294 307 302 306 333 328 331 244 248 195 188 192 200 229 246 278 271 224 12 348 343 340 339 337 337 337 335 335 313 300 307 304 312 338
286 281 280 278 288 307 316 313 304 287 278 284 287 276 271 271 249 252 243 224 242 234 220 215 211 210 209 206 203 202 204 202 202 208 207 204 208 211 213 213 212 218 225 222 221 226 236 241 236 243 270 269 275 279 284 306 302 300 24 348 341 254 213 176 159 169 185 220 249 276 281 123 94 56 346 340 341 349 353 354 357 356 350 349 345 335 334 344
286 282 278 274 289 306 312 311 296 279 280 285 287 274 268 269 223 256 278 153 208 226 213 210 210 209 206 203 202 201 199 203 209 210 208 207 209 208 211 216 214 211 222 224 227 230 230 237 242 246 254 263 275 272 273 295 297 301 33 343 334 208 182 173 167 184 142 52 274 267 296 26 82 60 334 343 343 351 3 5 5 3 3 5 358 355 355 356
285 280 272 271 287 302 308 307 291 278 284 287 283 268 261 234 180 73 112 181 185 201 200 200 202 199 198 198 195 190 191 210 211 209 209 209 211 209 208 216 217 214 219 222 225 230 229 236 247 251 251 253 258 260 265 278 293 312 330 322 324 184 186 179 184 254 26 36 260 240 301 299 76 47 321 357 11 351 4 6 9 13 9 7 1 2 5 8
283 272 261 267 281 295 298 296 287 278 284 291 266 249 199 169 147 96 204 216 137 157 192 194 198 193 190 191 184 177 184 204 206 212 212 209 211 211 208 214 217 218 226 222 218 229 232 236 242 242 242 244 244 245 252 269 294 299 296 311 314 181 184 191 211 265 14 283 263 140 284 282 77 53 320 15 37 340 346 2 14 17 12 14 10 13 17 17
280 249 246 264 278 285 288 289 285 284 287 275 225 197 158 163 115 109 219 251 101 142 206 183 186 187 183 183 179 179 183 179 185 212 211 208 213 207 204 214 211 212 225 221 216 228 227 223 228 231 235 239 235 238 245 266 290 285 297 337 334 178 173 204 231 238 286 277 284 38 284 291 66 60 352 18 44 354 341 358 18 19 17 30 28 28 30 30
269 203 232 260 283 287 289 288 285 291 279 232 170 146 144 140 126 172 216 156 101 167 195 168 174 182 178 176 179 180 179 178 188 205 202 205 214 208 206 215 214 217 229 225 221 224 223 222 229 233 232 230 237 242 244 257 271 276 309 38 107 124 170 225 230 254 264 257 300 334 285 296 17 73 35 339 302 52 39 354 19 19 15 35 46 44 40 41
217 193 223 256 291 297 295 292 292 284 242 182 147 134 108 103 155 250 231 121 115 144 158 174 180 177 174 173 184 186 180 188 200 199 200 205 209 209 212 216 218 220 227 231 229 230 230 227 229 233 233 232 239 246 242 248 254 230 213 190 169 124 243 236 206 229 258 307 347 311 293 297 327 68 69 301 270 58 71 44 31 33 24 46 64 63 55 57
195 206 215 241 279 295 305 310 300 261 189 151 150 135 107 136 211 263 117 140 177 170 156 185 180 175 179 178 184 190 186 197 206 196 197 204 204 208 212 212 216 217 222 229 227 228 234 233 232 234 236 233 227 230 235 237 234 212 206 226 229 210 225 234 208 222 251 107 258 282 284 247 300 61 218 254 270 76 87 91 91 101 89 71 80 83 81 83
204 213 202 217 264 291 313 332 306 209 152 153 152 132 137 243 220 130 119 147 188 182 171 179 175 175 187 188 188 189 186 195 209 204 199 200 204 210 211 211 210 213 224 226 216 220 228 225 227 231 234 234 222 213 220 218 214 216 212 226 243 252 243 239 238 247 224 123 207 250 267 258 170 154 190 191 76 100 106 101 115 128 124 96 98 101 99 93
209 212 195 200 249 289 323 0 121 149 149 152 140 134 192 250 196 139 148 142 194 188 173 171 176 183 191 194 195 189 190 201 208 207 207 204 207 211 213 216 214 212 223 226 215 220 221 216 222 225 225 230 223 217 222 225 215 215 222 237 255 278 281 276 295 317 12 94 145 210 249 303 311 169 171 117 89 113 117 117 124 126 123 117 115 116 111 92
207 209 208 197 250 296 103 76 116 136 151 152 142 171 237 251 121 150 178 158 167 176 171 166 168 181 190 193 196 190 187 199 205 206 208 207 211 215 216 218 217 213 214 222 221 220 226 230 222 215 214 218 220 218 221 234 226 211 214 233 248 267 289 296 293 317 326 293 185 215 235 16 333 243 192 97 110 120 126 131 128 124 124 126 128 124 115 95
205 205 210 218 310 13 102 115 123 140 154 151 155 220 248 211 154 200 189 168 167 168 169 167 166 179 185 185 192 192 184 183 200 208 208 210 217 221 218 215 217 213 206 210 219 218 228 232 219 213 214 210 212 213 213 220 224 209 213 224 237 264 282 280 264 251 279 271 184 237 242 82 321 251 211 214 135 128 131 130 124 131 136 137 135 126 116 108
203 201 205 224 349 41 51 121 133 148 155 150 172 230 236 202 208 199 179 172 175 173 173 176 180 183 181 179 184 193 194 194 201 205 204 209 220 223 216 212 215 213 206 210 223 233 238 231 217 218 218 211 211 212 211 215 210 204 223 222 225 252 252 258 271 237 250 261 148 267 266 189 214 200 181 207 171 144 133 128 131 140 143 143 137 136 138 133
201 200 203 213 202 65 77 131 144 156 158 158 187 225 213 200 199 171 162 167 167 168 178 195 188 180 182 184 183 186 195 196 196 202 202 202 218 226 215 215 221 215 206 209 220 233 240 232 207 199 208 206 203 203 207 211 210 214 236 227 222 250 238 221 254 268 261 269 162 248 273 263 280 168 174 195 183 160 141 135 137 142 153 151 141 153 174 147
200 200 205 213 218 144 131 140 154 158 158 167 194 221 220 209 177 138 140 159 158 159 178 204 185 180 183 182 177 179 191 194 189 200 207 202 217 235 212 211 221 217 205 204 216 223 224 232 208 182 195 199 191 198 208 204 207 214 226 231 225 249 268 227 252 274 282 291 288 243 249 71 51 109 197 199 183 165 146 138 140 151 167 164 154 159 130 72
198 197 205 213 213 177 159 149 158 161 163 180 195 204 210 192 160 146 135 143 144 150 174 179 162 174 177 176 174 178 193 204 201 203 209 207 219 233 219 210 211 210 203 200 210 213 208 229 220 167 181 198 194 203 213 208 205 207 211 219 216 224 247 253 251 261 277 288 290 280 284 78 56 221 198 191 181 163 142 134 142 157 171 172 169 166 67 46
196 199 210 211 208 195 171 154 160 165 167 177 185 185 184 170 155 154 144 137 132 136 157 156 151 167 174 178 182 185 197 209 212 210 211 217 223 224 222 216 206 205 203 198 204 207 200 220 229 176 182 201 201 205 213 214 211 208 212 219 219 220 228 239 231 224 261 275 289 299 327 85 221 210 175 177 180 159 142 138 146 162 177 181 173 161 57 30
195 203 212 207 204 194 166 156 161 167 170 174 177 170 159 158 154 153 152 135 122 120 130 139 145 163 178 187 195 202 208 214 217 218 220 223 223 222 223 213 203 206 206 200 203 207 203 213 228 211 197 199 194 197 207 211 207 210 220 224 228 229 227 238 247 226 238 247 265 284 289 99 236 211 166 169 170 156 149 146 150 164 177 186 180 157 60 22
202 204 208 205 202 184 152 150 162 173 182 179 170 165 150 145 148 149 148 135 122 119 115 118 123 134 170 198 210 216 222 225 225 225 229 234 230 228 228 214 195 199 200 199 201 205 205 211 220 221 215 206 189 190 205 212 210 214 223 224 227 230 229 238 253 260 253 238 247 272 257 129 219 215 166 164 162 158 154 143 149 172 184 185 174 164 31 24
209 206 208 208 207 190 162 169 180 184 189 178 163 160 150 140 146 148 147 141 134 129 121 119 122 122 137 161 186 211 219 226 232 229 227 237 237 221 218 222 213 198 195 196 199 202 204 206 213 214 208 201 196 195 203 210 216 222 227 224 224 226 229 233 237 248 252 246 268 287 328 126 198 192 166 167 159 153 152 147 159 181 186 175 165 180 26 41
211 208 212 214 213 205 188 184 184 182 185 178 165 160 148 138 147 153 151 145 139 136 131 129 126 117 111 91 75 75 160 155 197 222 218 236 240 214 208 217 210 198 202 201 196 201 203 199 209 215 209 201 202 207 211 212 217 223 227 227 224 221 222 224 226 235 243 261 287 286 318 139 185 172 164 165 155 152 153 158 174 175 157 154 163 163 85 56
213 210 213 218 218 215 206 191 184 184 184 180 171 166 157 149 151 153 153 149 142 141 140 136 131 115 99 87 77 46 36 97 117 117 167 252 250 221 209 208 199 194 201 198 191 199 206 205 212 222 227 223 216 211 214 215 217 223 228 228 224 220 221 224 227 234 243 271 277 273 195 162 176 169 165 161 156 156 150 153 169 157 139 150 161 137 108 90
218 214 211 214 217 217 216 206 191 187 187 184 179 175 168 159 154 155 161 158 147 144 139 133 144 142 123 120 110 58 54 80 75 57 18 305 279 246 220 204 198 194 190 188 187 194 207 215 217 227 236 237 233 211 201 206 214 226 231 228 222 217 217 221 226 232 235 241 256 271 216 179 169 165 167 161 155 151 145 155 165 148 142 156 151 141 151 215
221 219 214 209 208 212 216 213 201 192 190 190 188 185 178 167 161 161 167 170 164 153 136 123 151 171 162 141 112 67 110 107 68 53 14 351 1 297 240 195 186 185 183 184 184 189 206 217 217 225 233 236 237 227 213 212 217 220 219 219 219 217 216 219 225 229 229 234 256 290 217 176 160 164 166 155 151 153 155 162 158 144 147 154 148 157 175 253
225 225 221 213 211 212 213 212 206 197 196 196 194 192 188 180 174 170 167 169 171 160 151 151 162 176 187 160 117 89 169 151 75 63 54 61 98 84 117 182 176 178 181 183 185 188 199 212 217 223 229 235 237 232 229 232 228 221 216 214 214 216 217 217 221 225 227 233 256 262 173 151 149 164 165 156 157 164 163 157 147 141 147 148 153 166 165 47
231 230 227 220 219 218 214 211 206 201 202 201 198 197 196 192 191 190 182 176 176 174 177 183 181 173 194 199 158 118 138 139 49 41 60 55 73 89 98 163 169 176 181 185 191 189 188 212 224 219 216 225 233 234 236 236 228 219 217 215 212 213 217 216 220 228 232 235 236 185 160 159 165 170 169 164 160 159 156 150 143 141 145 152 161 163 137 53
239 234 232 227 225 223 219 214 205 203 208 208 203 200 198 195 195 195 193 190 188 188 190 197 207 201 207 233 227 229 200 186 276 335 28 34 47 73 152 171 169 177 184 189 196 190 188 217 231 214 209 217 226 231 229 219 209 203 206 213 211 209 213 218 223 228 227 217 192 173 173 184 185 178 171 162 155 157 157 149 142 144 153 165 165 155 120 75
262 241 234 231 230 228 225 220 209 204 212 213 208 204 200 194 192 189 189 193 195 195 196 201 211 217 224 241 245 249 247 240 246 264 295 338 38 55 182 179 174 179 186 190 198 197 198 213 220 204 205 215 226 220 200 195 198 193 200 222 218 213 217 220 225 228 221 199 178 181 191 199 191 179 168 159 159 165 163 152 149 154 161 164 157 141 116 86